COSMO-SKYMED 3

Last updated on Sun Apr 12 2026 00:02:34 GMT+0000 (Coordinated Universal Time)

1 33412U 08054A 26101.53376660 .00003136 00000+0 21582-3 0 9999 2 33412 97.8384 318.9872 0016966 128.9555 231.3186 15.06543078946906
UTC large
Height (km)
Speed (km/s)
/
Latitude / Longitude
Inclination (degrees)
Orbital Period (minutes)
Azimuth
Elevation
Range (km)
Doppler Factor

Next 0 passes for location: London (51.5072 / 0.1276)

Sorry there are no passes over London.
COSMO-SKYMED 3